Location: Krasnoyarskiy Pitomnik
(51.1333°N, 71.6167°E)
Time: 05:56:49
(UTC+00:00)

Vanguard 2 - Pass Details

Date: 26 April 2024
Orbit: 552 x 2901 km, 32.9° (Epoch: 12 May)

Event Time Altitude Azimuth Distance (km) Brightness Sun altitude
Exits shadow 22:44:09 - 253° (WSW) 5,341 11.2 -10.2°
Reaches altitude 10° 22:45:05 10° 251° (WSW) 5,176 11.1 -10.1°
Maximum altitude 22:58:49 36° 193° (SSW) 3,923 10.7 -8.4°
Drops below altitude 10° 23:13:38 10° 136° (SE) 5,567 12.1 -6.4°
Sets 23:18:11 0° 128° (SE) 6,402 12.5 -5.8°
